ION SCV-017

导读

ION SCV-017是一颗计划于2025年3月15日发射的卫星,发射归属国家尚未明确标注。作为ION系列太空试验平台的成员,它延续了系列卫星服务空间技术验证、微型卫星搭载部署的核心定位,旨在推动新兴航天技术的在轨测试验证,助力商用低轨卫星组网技术的迭代发展,目前该卫星已完成发射前的技术准备工作,待择机按计划实施发射任务。

Basic Information
目录编号:
63230
目录名称:
ION SCV-017
国际标识:
2025-052W
轨道中心:
EARTH
卫星名称:
ION SCV-017
卫星全名:
ION SCV-017
卫星状态:
在轨 (已飞行539 天)
发射日期:
2025-03-15 UTC
国别 :
意大利 (IT)
星等 :
--
Orbit Information
数据来源 国际轨道数据
星历时间: 2026-09-04T23:56:19+0800
17小时前
查看轨道信息
半长轴: 6858.888km
偏心率: 0.002309
轨道倾角: 97.379°
近地点辐角 125.749°
升交点赤经 142.141°
平近点角 234.590°
近地点: 464.913km
远地点: 496.589km
周期: 94.219分钟
每日圈数: 15.283479
Detailed Information
使用方式:
暂无
2D Orbit Map
3D Orbit Map
Orbit Altitude Analysis Chart
Orbit Inclination Analysis Chart
Orbit Comprehensive Analysis Chart
View Comprehensive Chart
Conjunction Data List
Event ID Objects TCA Miss Dist (km) Collision Risk Probability Collision Risk Index (CRI) Action
CDM_260905-153805-967206-323022
2026-09-05T
15:38:14+0000
0.558 km
远距离
1.096957E-4 高风险 0.76
CDM_260907-182506-323006-564421
2026-09-07T
18:25:26+0000
0.813 km
远距离
3.241901E-5 中风险 0.65
CDM_260903-115305-321606-323021
2026-09-03T
11:53:13+0000
1.157 km
极远距离
1.642524E-5 中风险 0.59
CDM_260905-123105-725106-323023
2026-09-05T
12:31:40+0000
1.626 km
极远距离
3.806801E-6 低风险 0.47
CDM_260905-215605-603706-323022
2026-09-05T
21:56:31+0000
1.829 km
极远距离
2.60524E-6 低风险 0.43
CDM_260830-062906-257106-323021
2026-08-30T
06:29:14+0000
2.043 km
极远距离
2.391794E-6 低风险 0.43
CDM_260903-101606-323006-717423
2026-09-03T
10:16:01+0000
2.073 km
极远距离
2.365223E-6 低风险 0.42
CDM_260906-105806-037706-323022
2026-09-06T
10:58:18+0000
1.871 km
极远距离
2.264774E-6 低风险 0.42
CDM_260906-204106-323006-379822
2026-09-06T
20:41:19+0000
2.096 km
极远距离
1.729646E-6 低风险 0.4
CDM_260905-100905-903706-323022
2026-09-05T
10:09:13+0000
2.165 km
极远距离
1.711084E-6 低风险 0.4